Timeline UpdatesTrip UpdatesNews PostsPvt PostsTravel TipsAdmin PostsConv PostsFollowed PostsChat RequestsBlog PostsPNR Posts

Disclaimer
Search
 
 
Wed Oct 1, 2014 19:47:01 ISTHomeTrainsΣChainsAtlasPNRForumGalleryNewsFAQTripsMembersLoginFeedback
No Recent News for this Train
Other Trains in the News **new
Latest...
Monsoon TT Updated W.e.f. 1st July to 30th Sept. 2014
Mon Jun 30, 2014 (04:42PM)
⇐ Return Journey: Train# 16335

16336/Nagercoil - Gandhidham Express

Time-Table HAS CHANGED.
Sep 12 (9:38PM)
Change Departure Station:
Change Arrival Station:
Post a Train Travel TipPost a Train Travel Tip **new
Post a Comment/Question/Picture/VideoPost a Comment/Question/Picture/Video
Pantry/Catering
✓ Pantry Car Avbl
✓ Catering Avbl
RSA - Rake Sharing
06309/06310/16335/16336 has RSA.
Rake/Coach Composition
LOCO-SLR-LD-GEN-S1-S2-S3-S4-S5-S6-PC-S7-S8-SS9-S10-S11-S12-A1-B2-B1-GEN-GEN-SLR; Coach position at Ahmedabad.
Loco
NCJ to SRR RPM/ED WAP4 SRR to GIMB ERS WDM3A
News    PNR    Forum    Time-Table    Availability    Fare Chart    Map    Arr/Dep History    Trips    Gallery    ΣChains    X/O    Timeline    
Travel Time: 42h 37m    49 halts    Distance: 2111 km    Avg Speed: 49 km/hr
Type: Mail/Express
Zone: SR/Southern
Departs @ 14:00 (Avg 12m late)
Platform# 1
  T    
Nagercoil Junction/NCJ 
Arrives @ 08:37 +2 nights (Avg 1h 30m late)
Platform# 1
    T  
Viramgam Junction/VG 

49 halts. 317 intermediate Stations between Nagercoil Junction and Viramgam Junction

Show ALL intermediate Stations  Show Old Time-Table

#CodeStation NameX/OArrivesAvgDepartsAvgHaltPFDay#KmSpeedElevZoneAddress
1NCJNagercoil Junction (4)»  -14:00+12110.05022mSRNagercoil-629002, Tamil Nadu
2TVCTrivandrum Central (5)  15:30 15:25+615:35+75 10m--171.17812mSRThiruvananthapuram 695001, Kerala
3QLNKollam Junction (6)X  16:25+1916:30+185m21135.76116mSRKollam 0474-2746194, Kerala
4KYJKayamkulam Junction (5)X  17:08 17:10+1217:10 17:12+122m--1176.56111mSRAlappuzha Ph;0479-2442042, Kerala
5CNGRChengannur (3)  17:30 17:32+1317:32 17:34+152m31196.7606mSRPh: 0479-2452340, Kerala
6TRVLTiruvalla (2)  17:40 17:43+1817:42 17:44+192 1m21205.84327mSRPh: 0469-2601314, Kerala
7KTYMKottayam (3)X  18:20+2218:25+295m11231.53815mSRTel: 0481 2563535, Kerala
8ERNErnakulam Town (North) (2)X  20:00+1920:05+185m11291.4569mSRTel: 0484 2395198, Kerala
9AWYAluva (3)  20:23+2220:25+222m31308.36112mSRPh: 0484-2624141, Kerala
10TCRThrissur (4)  21:19+2221:22+223m21362.9346mSRThrissur Tel: 0487 2423150, Kerala
11SRRShoranur Junction (7)  22:20+922:30+2210m--1395.85026mSRShoranur ph.no 0466-2222913, Kerala
12PTBPattambi (2)  22:43 22:44+2322:45+232 1m--1407.45821mSRPattambi, Kerala
13KTUKuttippuram (2)X  23:03 23:04+2523:05+262 1m--1425.85017mSRKuttippuram, Kerala
14TIRTirur (3)  23:23+2223:25+222m--1440.9699mSRTel: 0494 2422240, Kerala
15PGIParappangadi (2)X  23:38 23:39+2523:40+262 1m--1457.06519mSRParappanangadi, Kerala
16FKFerok (2)  23:53 23:54+2823:55+282 1m--1472.22419mSRFeroke, Kerala
17CLTKozhikode Main (4)  00:20+2100:25+225m42482.16111mSRCalicut Tel: 0495 2701234, Kerala
18QLDKoyilandy (3)  00:48 00:49+2100:50+222 1m--2506.57711mSRQuilandi, Kerala
19BDJVadakara (2)  01:07+2201:09+222m22528.47011mSRCalicut / Station Ph No : 0496-2524254, Kerala
20TLYThalassery (2)  01:28+2401:30+242m--2550.5419mSRKannur, Kerala
21CANKannur Main (4)  02:00+1702:05+205m12571.26714mSRKannur Tel: 0497 2705555, Kerala
22KPQKannapuram (2)  02:18+2202:20+212m12585.7649mSRKannur District, Kerala
23PAYPayyanur (3)  02:38+1802:40+182m--2604.8540mSRKannur District, Kerala
24KGQKasaragod (3)  03:38+1003:40+102m--2657.24218mSRTel: 04994 220800, Kerala
25MAJNMangalore Junction (3)X  04:50-205:00+410m32706.33124mSRMangalore 575001, Karnataka
26SLSurathkal (1)  05:40+205:42+82m12726.87022mKRSurathkal, Karnataka
27UDUdupi (2)  06:18+506:20+82m--2768.78018mKRUdupi, Karnataka
28KUDAKundapura (2)X  06:44+1406:46+192m12800.75313mKRKundapura - 576211, Karnataka
29BYNRByndoor Mookambika Road (1)X  07:24-07:26-2m12834.34510mKRUdupi Dist. 576214, Karnataka
30MRDWMurdeshwar (2)  08:06+3308:08+342m--2864.16328mKRMurudeshwara - 581350, Karnataka
31KTKumta (2)X  08:46+4108:48+432m--2904.24520mKRKumta - 581362, Karnataka
32KAWRKarwar (2)  10:02+2610:04+272m--2959.34514mKRKarwar, Karnataka
33CNOCanacona (1)  10:40+2510:42+252m12986.44329mKRPh:-0832-2643644., Goa
34MAOMadgaon Junction (3)  11:30+1611:40+1810m221020.65011mKRMadgaon 403601, Goa
35SWVSawantwadi Road (2)X  13:10+1813:12+372m121094.96540mKRDist. Sindhudurg, Maharashtra
36RNRatnagiri (3)X  15:40+4615:45+545m221255.459129mKRRatnagiri 415612, Maharashtra
37CHIChiplun (2)X  17:02+1:0817:04+1:282m121330.84812mKRChiplun, Maharashtra
38PNVLPanvel Junction (7)  21:20+1:1221:25+1:205m721534.54110mCRPanvel, Maharashtra
39BIRDBhiwandi Road (4)  22:23+1:3422:25+1:332m421572.33626mCRBhiwandi, Maharashtra
40BSRVasai Road (7)  23:10+1:1723:15+1:185m621599.6607mWRVasai 401202, Maharashtra
41BORBoisar (3)00:06+1:2900:08+1:292m--31650.48417mWRBoisar Tel.no-02525-266626, Maharashtra
42VAPIVapi (3)X  00:58+1:3201:00+1:322m--31720.75627mWRVapi, Gujarat
43BLValsad (3)X  01:28+1:2801:30+1:292m131746.94115mWRValsad, Gujarat
44STSurat (4)O  03:10+5303:22+5212m231815.67519mWRSurat 395001, Gujarat
45AKVAnkleshwar Junction (4)X  04:02+1:0604:04+1:062m131865.67019mWRAnkleshwar, Gujarat
46BRCVadodara Junction (7)X  05:20 05:12+1:0305:22+1:142 10m231945.46736mWRVadodara 390005, Gujarat
47ANNDAnand Junction (6)X  05:54+1:2805:56+1:282m231981.27444mWRAnand, Gujarat
48NDNadiad Junction (4)XO  06:11+1906:13+192m231999.75937mWRNadiad, Gujarat
49MANManinagar (2)  06:56-06:58-2m132042.01150mWRAhmadabad, Gujarat
50ADIAhmedabad Junction (12)  07:15+1:1807:35+1:1820m132045.26351mWRAhmedabad, Gujarat
51VGViramgam Junction (5)•  08:37+1:3008:39+1:302m132110.65529mWRViramgam, Gujarat
52DHGDhrangadhra Junction (3)  09:50+1:3109:52+1:322m--32175.37454mWRDhrangadhra, Gujarat
53MALBMaliya Miyana Junction (2)  10:54+2:1810:56+2:182m--32252.2496mWRMalia, Gujarat
54SIOBSamakhiali Junction (3)  11:44+2:1111:46+2:112m132291.46042mWRSamakhiali, Gujarat
55BCOBBhachau (3)  12:02+2:1012:04+2:102m132307.33044mWRBhachau, Gujarat
56GIMBGandhidham Junction (3)  13:20+1:34-332345.1-12mWRGandhidham, Gujarat
Scroll to Top
Scroll to Bottom